Weather History for Wahpeton, ND

Change the Weather History Date:

Sunday, May 26, 2013

  Actual Average (KFFM) Record (KFFM)
Temperature  
Mean Temperature 54 °F -  
Max Temperature 59 °F 70 °F 89 °F (1966)
Min Temperature 50 °F 49 °F 33 °F (1970)
Degree Days  
Heating Degree Days 10    
Growing Degree Days 4 (Base 50)    
Moisture  
Dew Point 45 °F    
Average Humidity 72    
Maximum Humidity 82    
Minimum Humidity 59    
Precipitation  
Precipitation 0.00 in - - ()
Sea Level Pressure  
Sea Level Pressure 30.08 in    
Wind  
Wind Speed 14 mph (SE)    
Max Wind Speed 25 mph    
Max Gust Speed 32 mph    
Visibility 10 miles    
Events      
Averages and records for this station are not official NWS values.
T = Trace of Precipitation, MM = Missing Value Source: NWS Daily Summary

Daily Weather History Graph

Daily Weather History Graph

Search for Another Location

Airport:

Trip Planner

Search our weather history database for the weather conditions in past years. The results will help you decide how hot, cold, wet, or windy it might be!

Date:

Astronomy

May. 26, 2013 Rise Set
Actual Time 5:42 AM CDT 9:05 PM CDT
Civil Twilight 5:05 AM CDT 9:42 PM CDT
Nautical Twilight 4:16 AM CDT 10:31 PM CDT
Astronomical Twilight 3:15 AM CDT 11:33 PM CDT
Moon 10:52 PM CDT (5/26) 7:13 AM CDT (5/26)
Length of Visible Light 16h 37m
Length of Day
15h 23m
Waning Gibbous, 96% of the Moon is Illuminated
May 26
Waning Gibbous
May 31
Last Quarter
Jun 8
New
Jun 16
First Quarter
Jun 23
Full

Hourly Weather History & Observations

Time (CDT) Temp. Dew Point Humidity Pressure Visibility Wind Dir Wind Speed Gust Speed Precip Events Conditions
12:15 AM 53.6 °F 46.4 °F 77% 30.15 in 10.0 mi SE 13.8 mph 17.3 mph N/A   Overcast
12:35 AM 51.8 °F 46.4 °F 82% 30.14 in 10.0 mi SE 11.5 mph 16.1 mph N/A   Overcast
12:55 AM 51.8 °F 46.4 °F 82% 30.15 in 10.0 mi SE 11.5 mph - N/A   Overcast
1:15 AM 51.8 °F 46.4 °F 82% 30.14 in 10.0 mi SE 13.8 mph 18.4 mph N/A   Overcast
1:35 AM 51.8 °F 46.4 °F 82% 30.15 in 10.0 mi SE 12.7 mph 19.6 mph N/A   Overcast
1:55 AM 51.8 °F 46.4 °F 82% 30.14 in 10.0 mi SE 10.4 mph - N/A   Overcast
2:15 AM 51.8 °F 46.4 °F 82% 30.10 in 10.0 mi ESE 12.7 mph - N/A   Overcast
2:35 AM 51.8 °F 44.6 °F 76% 30.08 in 10.0 mi ESE 12.7 mph 19.6 mph N/A   Overcast
2:55 AM 51.8 °F 44.6 °F 76% 30.09 in 10.0 mi SE 13.8 mph 20.7 mph N/A   Overcast
3:15 AM 51.8 °F 44.6 °F 76% 30.11 in 10.0 mi SE 13.8 mph 19.6 mph N/A   Overcast
3:35 AM 51.8 °F 44.6 °F 76% 30.12 in 10.0 mi SE 9.2 mph 12.7 mph N/A   Overcast
3:55 AM 51.8 °F 44.6 °F 76% 30.11 in 10.0 mi SE 13.8 mph - N/A   Overcast
4:15 AM 51.8 °F 44.6 °F 76% 30.12 in 10.0 mi SE 15.0 mph - N/A   Overcast
4:35 AM 51.8 °F 44.6 °F 76% 30.13 in 10.0 mi SE 16.1 mph - N/A   Overcast
4:55 AM 51.8 °F 44.6 °F 76% 30.13 in 10.0 mi SE 12.7 mph - N/A   Overcast
5:15 AM 51.8 °F 44.6 °F 76% 30.11 in 10.0 mi SE 15.0 mph 20.7 mph N/A   Overcast
5:35 AM 51.8 °F 44.6 °F 76% 30.08 in 10.0 mi ESE 16.1 mph 23.0 mph N/A   Overcast
5:55 AM 50.0 °F 42.8 °F 76% 30.06 in 10.0 mi ESE 16.1 mph 21.9 mph N/A   Overcast
6:15 AM 50.0 °F 42.8 °F 76% 30.08 in 10.0 mi ESE 16.1 mph 21.9 mph N/A   Mostly Cloudy
6:35 AM 50.0 °F 42.8 °F 76% 30.09 in 10.0 mi ESE 13.8 mph 19.6 mph N/A   Mostly Cloudy
6:55 AM 50.0 °F 42.8 °F 76% 30.11 in 10.0 mi SE 13.8 mph 18.4 mph N/A   Mostly Cloudy
7:15 AM 51.8 °F 42.8 °F 71% 30.11 in 10.0 mi SE 16.1 mph 23.0 mph N/A   Overcast
7:35 AM 51.8 °F 42.8 °F 71% 30.11 in 10.0 mi SE 13.8 mph 19.6 mph N/A   Overcast
7:55 AM 51.8 °F 42.8 °F 71% 30.12 in 10.0 mi SSE 11.5 mph - N/A   Overcast
8:15 AM 51.8 °F 42.8 °F 71% 30.11 in 10.0 mi SSE 13.8 mph - N/A   Overcast
8:35 AM 51.8 °F 42.8 °F 71% 30.11 in 10.0 mi SE 10.4 mph - N/A   Overcast
8:55 AM 51.8 °F 42.8 °F 71% 30.11 in 10.0 mi SE 9.2 mph - N/A   Overcast
9:15 AM 51.8 °F 44.6 °F 76% 30.11 in 10.0 mi SE 11.5 mph 17.3 mph N/A   Overcast
9:35 AM 51.8 °F 44.6 °F 76% 30.11 in 10.0 mi SE 10.4 mph - N/A   Overcast
9:55 AM 51.8 °F 44.6 °F 76% 30.11 in 10.0 mi SE 13.8 mph - N/A   Overcast
10:15 AM 51.8 °F 44.6 °F 76% 30.12 in 10.0 mi SE 12.7 mph 19.6 mph N/A   Overcast
10:35 AM 53.6 °F 44.6 °F 72% 30.12 in 10.0 mi SE 13.8 mph 17.3 mph N/A   Overcast
10:55 AM 53.6 °F 44.6 °F 72% 30.12 in 10.0 mi SSE 15.0 mph 21.9 mph N/A   Overcast
11:15 AM 53.6 °F 44.6 °F 72% 30.10 in 10.0 mi SE 12.7 mph - N/A   Overcast
11:55 AM 55.4 °F 44.6 °F 67% 30.08 in 10.0 mi SE 15.0 mph 21.9 mph N/A   Overcast
12:15 PM 55.4 °F 44.6 °F 67% 30.05 in 10.0 mi SE 17.3 mph 26.5 mph N/A   Overcast
12:35 PM 55.4 °F 44.6 °F 67% 30.04 in 10.0 mi SE 25.3 mph 32.2 mph N/A   Overcast
12:55 PM 55.4 °F 44.6 °F 67% 30.04 in 10.0 mi SE 21.9 mph 28.8 mph N/A   Overcast
1:15 PM 55.4 °F 46.4 °F 72% 30.07 in 10.0 mi SE 23.0 mph 29.9 mph N/A   Overcast
1:35 PM 55.4 °F 46.4 °F 72% 30.08 in 10.0 mi SE 19.6 mph 28.8 mph N/A   Overcast
1:55 PM 55.4 °F 46.4 °F 72% 30.09 in 10.0 mi SE 20.7 mph 27.6 mph N/A   Overcast
2:15 PM 55.4 °F 46.4 °F 72% 30.08 in 10.0 mi SSE 21.9 mph 25.3 mph N/A   Overcast
2:35 PM 57.2 °F 46.4 °F 67% 30.08 in 10.0 mi SE 17.3 mph 24.2 mph N/A   Overcast
2:55 PM 57.2 °F 46.4 °F 67% 30.08 in 10.0 mi SE 18.4 mph 24.2 mph N/A   Overcast
3:15 PM 57.2 °F 46.4 °F 67% 30.08 in 10.0 mi SE 16.1 mph 23.0 mph N/A   Overcast
3:35 PM 59.0 °F 46.4 °F 63% 30.08 in 10.0 mi SSE 13.8 mph 23.0 mph N/A   Overcast
3:55 PM 59.0 °F 46.4 °F 63% 30.08 in 10.0 mi SE 15.0 mph - N/A   Overcast
4:15 PM 59.0 °F 46.4 °F 63% 30.08 in 10.0 mi ESE 15.0 mph 21.9 mph N/A   Overcast
4:35 PM 59.0 °F 46.4 °F 63% 30.08 in 10.0 mi SE 19.6 mph 24.2 mph N/A   Overcast
4:55 PM 59.0 °F 46.4 °F 63% 30.07 in 10.0 mi SE 16.1 mph - N/A   Overcast
5:15 PM 59.0 °F 44.6 °F 59% 30.07 in 10.0 mi ESE 17.3 mph 24.2 mph N/A   Overcast
5:35 PM 59.0 °F 44.6 °F 59% 30.06 in 10.0 mi SE 17.3 mph - N/A   Overcast
5:55 PM 59.0 °F 44.6 °F 59% 30.06 in 10.0 mi SE 17.3 mph 20.7 mph N/A   Overcast
6:15 PM 59.0 °F 44.6 °F 59% 30.06 in 10.0 mi SE 16.1 mph - N/A   Overcast
6:35 PM 57.2 °F 44.6 °F 63% 30.06 in 10.0 mi SE 15.0 mph 20.7 mph N/A   Overcast
6:55 PM 57.2 °F 42.8 °F 59% 30.05 in 10.0 mi SE 13.8 mph 19.6 mph N/A   Overcast
7:15 PM 57.2 °F 44.6 °F 63% 30.06 in 10.0 mi SE 16.1 mph - N/A   Overcast
7:35 PM 57.2 °F 44.6 °F 63% 30.06 in 10.0 mi SE 13.8 mph - N/A   Overcast
7:55 PM 55.4 °F 44.6 °F 67% 30.06 in 10.0 mi SE 13.8 mph 21.9 mph N/A   Overcast
8:15 PM 55.4 °F 46.4 °F 72% 30.06 in 10.0 mi SE 13.8 mph 21.9 mph N/A   Overcast
8:35 PM 53.6 °F 46.4 °F 77% 30.06 in 10.0 mi SE 12.7 mph - N/A   Overcast
8:55 PM 53.6 °F 46.4 °F 77% 30.06 in 10.0 mi SE 9.2 mph - N/A   Overcast
9:15 PM 53.6 °F 44.6 °F 72% 30.05 in 10.0 mi ESE 12.7 mph - N/A   Overcast
9:35 PM 53.6 °F 44.6 °F 72% 30.05 in 10.0 mi SE 10.4 mph - N/A   Overcast
9:55 PM 53.6 °F 44.6 °F 72% 30.04 in 10.0 mi SE 9.2 mph - N/A   Overcast
10:15 PM 53.6 °F 44.6 °F 72% 30.04 in 10.0 mi SE 10.4 mph - N/A   Overcast
10:35 PM 53.6 °F 44.6 °F 72% 30.04 in 10.0 mi SE 12.7 mph - N/A   Overcast
10:55 PM 53.6 °F 46.4 °F 77% 30.03 in 10.0 mi SE 10.4 mph 16.1 mph N/A   Overcast
11:15 PM 53.6 °F 46.4 °F 77% 30.00 in 10.0 mi ESE 12.7 mph - N/A   Overcast
11:35 PM 53.6 °F 46.4 °F 77% 30.01 in 10.0 mi SE 11.5 mph - N/A   Overcast
11:55 PM 53.6 °F 46.4 °F 77% 30.01 in 10.0 mi SE 12.7 mph 19.6 mph N/A   Overcast